Location: Namasale
(1.5000°N, 32.6167°E)
Time: 00:31:33
(UTC+00:00)

Vanguard 3 - Pass Details

Date: 09 December 2021
Orbit: 508 x 3260 km, 33.3° (Epoch: 27 January)

Event Time Altitude Azimuth Distance (km) Brightness Sun altitude
Exits shadow 02:41:57 - 319° (NW) 6,261 11.1 -14.4°
Reaches altitude 10° 02:42:35 10° 321° (NW) 6,192 11.1 -14.2°
Maximum altitude 02:54:36 19° 359° (N) 5,262 11.0 -11.5°
Drops below altitude 10° 03:05:10 10° 37° (NE) 5,395 11.5 -9.0°
Sets 03:10:58 0° 55° (NE) 5,934 12.0 -7.7°
